| time (UTC) | temp C | wind direction | speed KPH | gust KPH | rain 1hr cm | rain 24hr cm | rain mn cm | humidity % | barometer mb |
| 20260504032820 | 7 | 248 | 0.0 | 0.0 | 0.00 | 0.00 | 0.00 | 65 | 1011.8 |
| 20260504032317 | 7 | 248 | 0.0 | 0.0 | 0.00 | 0.00 | 0.00 | 65 | 1011.9 |
| 20260504031814 | 8 | 248 | 0.0 | 0.0 | 0.00 | 0.00 | 0.00 | 65 | 1011.9 |
| 20260504031329 | 8 | 248 | 0.0 | 0.0 | 0.00 | 0.00 | 0.00 | 65 | 1011.9 |
| 20260504030826 | 8 | 248 | 0.0 | 0.0 | 0.00 | 0.00 | 0.00 | 63 | 1011.9 |
| 20260504030343 | 8 | 248 | 0.0 | 0.0 | 0.00 | 0.00 | 0.00 | 64 | 1011.8 |
| 20260504025822 | 8 | 248 | 0.0 | 0.0 | 0.00 | 0.00 | 0.00 | 63 | 1011.8 |
| 20260504025318 | 8 | 248 | 0.0 | 0.0 | 0.00 | 0.00 | 0.00 | 62 | 1011.8 |
| 20260504024814 | 8 | 248 | 0.0 | 0.0 | 0.00 | 0.00 | 0.00 | 60 | 1011.8 |
| 20260504024351 | 8 | 248 | 0.0 | 0.0 | 0.00 | 0.00 | 0.00 | 59 | 1011.7 |
| 20260504023827 | 8 | 248 | 0.0 | 0.0 | 0.00 | 0.00 | 0.00 | 61 | 1011.8 |
| 20260504023323 | 9 | 248 | 0.0 | 0.0 | 0.00 | 0.00 | 0.00 | 61 | 1011.9 |
| 20260504022818 | 9 | 248 | 0.0 | 0.0 | 0.00 | 0.00 | 0.00 | 56 | 1011.9 |
| 20260504022319 | 9 | 248 | 0.0 | 0.0 | 0.00 | 0.00 | 0.00 | 54 | 1011.9 |
| 20260504021815 | 9 | 248 | 0.0 | 0.0 | 0.00 | 0.00 | 0.00 | 53 | 1011.9 |
| 20260504021311 | 10 | 248 | 0.0 | 0.0 | 0.00 | 0.00 | 0.00 | 53 | 1011.9 |
| 20260504020828 | 10 | 248 | 0.0 | 0.0 | 0.00 | 0.00 | 0.00 | 54 | 1011.8 |
| 20260504020324 | 10 | 248 | 0.0 | 0.0 | 0.00 | 0.00 | 0.00 | 51 | 1011.9 |
| 20260504015839 | 10 | 248 | 0.0 | 0.0 | 0.00 | 0.00 | 0.00 | 51 | 1011.9 |
| 20260504015314 | 9 | 248 | 0.0 | 0.0 | 0.00 | 0.00 | 0.00 | 51 | 1011.9 |
| 20260504014850 | 9 | 248 | 0.0 | 0.0 | 0.00 | 0.00 | 0.00 | 51 | 1012.0 |
| 20260504014346 | 10 | 248 | 0.0 | 0.0 | 0.00 | 0.00 | 0.00 | 51 | 1011.8 |
| 20260504013825 | 10 | 248 | 0.0 | 0.0 | 0.00 | 0.00 | 0.00 | 50 | 1011.8 |
| 20260504013342 | 10 | 248 | 0.0 | 0.0 | 0.00 | 0.00 | 0.00 | 50 | 1011.7 |
| 20260504012817 | 10 | 248 | 0.0 | 0.0 | 0.00 | 0.00 | 0.00 | 50 | 1011.6 |
| 20260504012314 | 10 | 248 | 0.0 | 0.0 | 0.00 | 0.00 | 0.00 | 49 | 1011.6 |
| 20260504011850 | 10 | 248 | 0.0 | 0.0 | 0.00 | 0.00 | 0.00 | 50 | 1011.6 |
| 20260504011324 | 10 | 248 | 0.0 | 0.0 | 0.00 | 0.00 | 0.00 | 49 | 1011.5 |
| 20260504010821 | 10 | 248 | 0.0 | 0.0 | 0.00 | 0.00 | 0.00 | 48 | 1011.5 |
| 20260504010317 | 10 | 248 | 0.0 | 0.0 | 0.00 | 0.00 | 0.00 | 48 | 1011.4 |
| 20260504005817 | 10 | 248 | 0.0 | 0.0 | 0.00 | 0.00 | 0.00 | 47 | 1011.2 |
| 20260504005313 | 10 | 248 | 0.0 | 0.0 | 0.00 | 0.00 | 0.00 | 46 | 1011.2 |
| 20260504004830 | 11 | 248 | 0.0 | 0.0 | 0.00 | 0.00 | 0.00 | 45 | 1011.1 |
| 20260504004324 | 11 | 248 | 0.0 | 0.0 | 0.00 | 0.00 | 0.00 | 44 | 1011.1 |
| 20260504003820 | 11 | 248 | 0.0 | 0.0 | 0.00 | 0.00 | 0.00 | 44 | 1011.0 |
| 20260504003317 | 11 | 248 | 0.0 | 0.0 | 0.00 | 0.00 | 0.00 | 43 | 1010.9 |
| 20260504002812 | 11 | 248 | 0.0 | 3.2 | 0.00 | 0.00 | 0.00 | 42 | 1010.8 |
| 20260504002349 | 12 | 248 | 0.0 | 3.2 | 0.00 | 0.00 | 0.00 | 42 | 1010.7 |
| 20260504001828 | 12 | 281 | 0.0 | 1.6 | 0.00 | 0.00 | 0.00 | 40 | 1010.6 |
| 20260504001325 | 12 | 281 | 0.0 | 1.6 | 0.00 | 0.00 | 0.00 | 39 | 1010.6 |
| 20260504000822 | 13 | 281 | 0.0 | 1.6 | 0.00 | 0.00 | 0.00 | 38 | 1010.5 |
| 20260504000319 | 13 | 281 | 0.0 | 6.4 | 0.00 | 0.00 | 0.00 | 36 | 1010.5 |
| 20260503235834 | 13 | 294 | 1.6 | 6.4 | 0.00 | 0.00 | 0.00 | 35 | 1010.5 |
| 20260503235330 | 13 | 347 | 1.6 | 4.8 | 0.00 | 0.00 | 0.00 | 37 | 1010.3 |
| 20260503234826 | 13 | 65 | 1.6 | 12.9 | 0.00 | 0.00 | 0.00 | 35 | 1010.2 |
| 20260503234321 | 13 | 309 | 0.0 | 14.5 | 0.00 | 0.00 | 0.00 | 35 | 1010.2 |
| 20260503233821 | 13 | 306 | 1.6 | 11.3 | 0.00 | 0.00 | 0.00 | 34 | 1010.2 |
| 20260503233318 | 14 | 344 | 1.6 | 14.5 | 0.00 | 0.00 | 0.00 | 34 | 1010.1 |
| 20260503232813 | 14 | 322 | 3.2 | 14.5 | 0.00 | 0.00 | 0.00 | 36 | 1010.0 |
| 20260503232329 | 14 | 288 | 0.0 | 14.5 | 0.00 | 0.00 | 0.00 | 33 | 1010.0 |
| 20260503231825 | 14 | 302 | 4.8 | 14.5 | 0.00 | 0.00 | 0.00 | 34 | 1010.1 |
| 20260503231322 | 14 | 304 | 4.8 | 16.1 | 0.00 | 0.00 | 0.00 | 33 | 1010.0 |
| 20260503230818 | 14 | 290 | 3.2 | 16.1 | 0.00 | 0.00 | 0.00 | 33 | 1010.0 |
| 20260503230318 | 14 | 246 | 3.2 | 16.1 | 0.00 | 0.00 | 0.00 | 32 | 1009.9 |
| 20260503225814 | 14 | 16 | 6.4 | 17.7 | 0.00 | 0.00 | 0.00 | 32 | 1009.9 |
| 20260503225330 | 14 | 349 | 4.8 | 17.7 | 0.00 | 0.00 | 0.00 | 33 | 1009.9 |
| 20260503224827 | 14 | 339 | 6.4 | 25.7 | 0.00 | 0.00 | 0.00 | 33 | 1009.9 |
| 20260503224323 | 14 | 274 | 9.7 | 24.1 | 0.00 | 0.00 | 0.00 | 32 | 1009.7 |
| 20260503223819 | 15 | 334 | 9.7 | 25.7 | 0.00 | 0.00 | 0.00 | 34 | 1009.8 |
| 20260503223316 | 15 | 265 | 4.8 | 29.0 | 0.00 | 0.00 | 0.00 | 33 | 1009.8 |
| 20260503222815 | 15 | 347 | 11.3 | 29.0 | 0.00 | 0.00 | 0.00 | 32 | 1009.8 |
| 20260503222311 | 14 | 360 | 6.4 | 22.5 | 0.00 | 0.00 | 0.00 | 32 | 1009.8 |
| 20260503221827 | 14 | 295 | 8.0 | 24.1 | 0.00 | 0.00 | 0.00 | 33 | 1009.8 |
| 20260503221343 | 15 | 342 | 14.5 | 25.7 | 0.00 | 0.00 | 0.00 | 31 | 1009.9 |
| 20260503220819 | 15 | 265 | 9.7 | 20.9 | 0.00 | 0.00 | 0.00 | 31 | 1009.8 |
| 20260503220315 | 15 | 315 | 8.0 | 19.3 | 0.00 | 0.00 | 0.00 | 33 | 1009.8 |
| 20260503215811 | 15 | 350 | 4.8 | 19.3 | 0.00 | 0.00 | 0.00 | 31 | 1009.8 |
| 20260503215311 | 14 | 320 | 8.0 | 24.1 | 0.00 | 0.00 | 0.00 | 33 | 1009.7 |
| 20260503214828 | 15 | 286 | 9.7 | 25.7 | 0.00 | 0.00 | 0.00 | 30 | 1009.7 |
| 20260503214321 | 15 | 311 | 11.3 | 25.7 | 0.00 | 0.00 | 0.00 | 31 | 1009.7 |
| 20260503213817 | 15 | 333 | 4.8 | 20.9 | 0.00 | 0.00 | 0.00 | 29 | 1009.8 |
| 20260503213314 | 14 | 300 | 6.4 | 25.7 | 0.00 | 0.00 | 0.00 | 29 | 1009.8 |
| 20260503212827 | 14 | 13 | 11.3 | 22.5 | 0.00 | 0.00 | 0.00 | 31 | 1009.7 |
| 20260503212343 | 15 | 360 | 8.0 | 22.5 | 0.00 | 0.00 | 0.00 | 30 | 1009.7 |
| 20260503211816 | 14 | 294 | 11.3 | 22.5 | 0.00 | 0.00 | 0.00 | 30 | 1009.7 |
| 20260503211329 | 14 | 312 | 8.0 | 22.5 | 0.00 | 0.00 | 0.00 | 31 | 1009.6 |
| 20260503210827 | 14 | 332 | 8.0 | 22.5 | 0.00 | 0.00 | 0.00 | 33 | 1009.8 |
| 20260503210324 | 14 | 229 | 6.4 | 37.0 | 0.00 | 0.00 | 0.00 | 31 | 1009.8 |
| 20260503205816 | 14 | 350 | 8.0 | 37.0 | 0.00 | 0.00 | 0.00 | 31 | 1009.7 |
| 20260503205330 | 14 | 292 | 14.5 | 29.0 | 0.00 | 0.00 | 0.00 | 31 | 1009.8 |
| 20260503204823 | 14 | 344 | 9.7 | 29.0 | 0.00 | 0.00 | 0.00 | 30 | 1009.7 |
| 20260503204318 | 14 | 333 | 11.3 | 24.1 | 0.00 | 0.00 | 0.00 | 29 | 1009.9 |
| 20260503203815 | 14 | 323 | 9.7 | 29.0 | 0.00 | 0.00 | 0.00 | 29 | 1009.9 |
| 20260503203336 | 13 | 16 | 14.5 | 29.0 | 0.00 | 0.00 | 0.00 | 32 | 1010.0 |
| 20260503202827 | 13 | 331 | 12.9 | 29.0 | 0.00 | 0.00 | 0.00 | 31 | 1009.9 |
| 20260503202320 | 13 | 351 | 14.5 | 30.6 | 0.00 | 0.00 | 0.00 | 33 | 1009.9 |
| 20260503201817 | 13 | 209 | 9.7 | 19.3 | 0.00 | 0.00 | 0.00 | 31 | 1010.0 |
| 20260503201330 | 14 | 299 | 3.2 | 32.2 | 0.00 | 0.00 | 0.00 | 32 | 1009.9 |
| 20260503200826 | 14 | 317 | 12.9 | 32.2 | 0.00 | 0.00 | 0.00 | 33 | 1009.9 |
| 20260503200343 | 13 | 336 | 9.7 | 24.1 | 0.00 | 0.00 | 0.00 | 34 | 1010.0 |
| 20260503195817 | 13 | 14 | 6.4 | 24.1 | 0.00 | 0.00 | 0.00 | 32 | 1010.0 |
| 20260503195335 | 13 | 336 | 9.7 | 25.7 | 0.00 | 0.00 | 0.00 | 33 | 1010.1 |
| 20260503194814 | 13 | 337 | 12.9 | 25.7 | 0.00 | 0.00 | 0.00 | 34 | 1010.2 |
| 20260503194330 | 13 | 5 | 9.7 | 20.9 | 0.00 | 0.00 | 0.00 | 34 | 1010.1 |
| 20260503193846 | 13 | 333 | 12.9 | 20.9 | 0.00 | 0.00 | 0.00 | 33 | 1010.1 |
| 20260503193322 | 13 | 327 | 6.4 | 29.0 | 0.00 | 0.00 | 0.00 | 32 | 1010.1 |
| 20260503192819 | 14 | 331 | 9.7 | 29.0 | 0.00 | 0.00 | 0.00 | 32 | 1010.2 |
| 20260503192315 | 13 | 360 | 12.9 | 29.0 | 0.00 | 0.00 | 0.00 | 33 | 1010.3 |
| 20260503191811 | 13 | 281 | 8.0 | 19.3 | 0.00 | 0.00 | 0.00 | 35 | 1010.3 |
| 20260503191348 | 13 | 231 | 6.4 | 29.0 | 0.00 | 0.00 | 0.00 | 33 | 1010.2 |
| 20260503190828 | 13 | 89 | 8.0 | 29.0 | 0.00 | 0.00 | 0.00 | 33 | 1010.4 |
| 20260503190321 | 13 | 332 | 8.0 | 24.1 | 0.00 | 0.00 | 0.00 | 33 | 1010.4 |
| 20260503185854 | 13 | 249 | 9.7 | 25.7 | 0.00 | 0.00 | 0.00 | 34 | 1010.4 |
| 20260503185327 | 13 | 347 | 11.3 | 27.4 | 0.00 | 0.00 | 0.00 | 34 | 1010.5 |
| 20260503184843 | 13 | 5 | 14.5 | 27.4 | 0.00 | 0.00 | 0.00 | 35 | 1010.6 |
| 20260503184316 | 13 | 323 | 12.9 | 27.4 | 0.00 | 0.00 | 0.00 | 35 | 1010.4 |
| 20260503183812 | 13 | 336 | 9.7 | 25.7 | 0.00 | 0.00 | 0.00 | 34 | 1010.5 |
| 20260503183329 | 13 | 333 | 11.3 | 25.7 | 0.00 | 0.00 | 0.00 | 35 | 1010.6 |
| 20260503182825 | 12 | 300 | 8.0 | 27.4 | 0.00 | 0.00 | 0.00 | 39 | 1010.7 |
| 20260503182326 | 12 | 299 | 16.1 | 27.4 | 0.00 | 0.00 | 0.00 | 40 | 1010.6 |
| 20260503181822 | 11 | 313 | 14.5 | 27.4 | 0.00 | 0.00 | 0.00 | 37 | 1010.7 |
| 20260503181314 | 11 | 331 | 11.3 | 27.4 | 0.00 | 0.00 | 0.00 | 38 | 1010.7 |
| 20260503180830 | 11 | 5 | 11.3 | 27.4 | 0.00 | 0.00 | 0.00 | 37 | 1010.8 |
| 20260503180324 | 11 | 311 | 9.7 | 22.5 | 0.00 | 0.00 | 0.00 | 38 | 1010.7 |
| 20260503175839 | 12 | 287 | 9.7 | 24.1 | 0.00 | 0.00 | 0.00 | 37 | 1010.7 |
| 20260503175336 | 11 | 328 | 11.3 | 22.5 | 0.00 | 0.00 | 0.00 | 39 | 1010.7 |
| 20260503174832 | 11 | 325 | 11.3 | 30.6 | 0.00 | 0.00 | 0.00 | 39 | 1010.7 |
| 20260503174328 | 11 | 227 | 9.7 | 30.6 | 0.00 | 0.00 | 0.00 | 41 | 1011.1 |
| 20260503173825 | 11 | 165 | 9.7 | 27.4 | 0.00 | 0.00 | 0.00 | 39 | 1011.0 |
| 20260503173322 | 11 | 319 | 8.0 | 29.0 | 0.00 | 0.00 | 0.00 | 40 | 1011.1 |
| 20260503172816 | 11 | 250 | 11.3 | 30.6 | 0.00 | 0.00 | 0.00 | 41 | 1011.1 |
| 20260503172333 | 11 | 23 | 14.5 | 30.6 | 0.00 | 0.00 | 0.00 | 40 | 1011.0 |
| 20260503171828 | 11 | 13 | 4.8 | 20.9 | 0.00 | 0.00 | 0.00 | 43 | 1011.1 |
| 20260503171323 | 10 | 263 | 9.7 | 19.3 | 0.00 | 0.00 | 0.00 | 44 | 1011.2 |
| 20260503170820 | 10 | 360 | 3.2 | 19.3 | 0.00 | 0.00 | 0.00 | 43 | 1011.2 |
| 20260503170320 | 10 | 338 | 12.9 | 25.7 | 0.00 | 0.00 | 0.00 | 43 | 1011.4 |
| 20260503150813 | 8 | 333 | 9.7 | 24.1 | 0.00 | 0.00 | 0.00 | 47 | 1011.9 |
| 20260503150315 | 8 | 277 | 14.5 | 24.1 | 0.00 | 0.00 | 0.00 | 45 | 1011.9 |
| 20260503131317 | 7 | 269 | 9.7 | 20.9 | 0.00 | 0.00 | 0.00 | 57 | 1011.8 |
| 20260503130812 | 7 | 338 | 11.3 | 20.9 | 0.00 | 0.00 | 0.00 | 57 | 1011.8 |
| 20260503130329 | 7 | 339 | 3.2 | 20.9 | 0.00 | 0.00 | 0.00 | 57 | 1011.8 |
| 20260503110814 | 6 | 304 | 8.0 | 16.1 | 0.00 | 0.00 | 0.00 | 63 | 1011.1 |
| 20260503110311 | 6 | 250 | 4.8 | 16.1 | 0.00 | 0.00 | 0.00 | 64 | 1011.0 |
| 20260503090330 | 6 | 285 | 4.8 | 14.5 | 0.00 | 0.00 | 0.00 | 60 | 1010.2 |
| 20260503081314 | 7 | 5 | 4.8 | 16.1 | 0.00 | 0.00 | 0.00 | 57 | 1010.2 |
| 20260503080810 | 7 | 314 | 3.2 | 16.1 | 0.00 | 0.00 | 0.00 | 57 | 1010.2 |
| 20260503080327 | 7 | 305 | 3.2 | 12.9 | 0.00 | 0.00 | 0.00 | 59 | 1010.2 |
| 20260503072824 | 7 | 301 | 4.8 | 12.9 | 0.00 | 0.00 | 0.00 | 57 | 1010.0 |
| 20260503072321 | 7 | 344 | 6.4 | 12.9 | 0.00 | 0.00 | 0.00 | 56 | 1010.0 |
| 20260503071821 | 7 | 318 | 4.8 | 16.1 | 0.00 | 0.00 | 0.00 | 56 | 1010.0 |
| 20260503071317 | 7 | 355 | 6.4 | 14.5 | 0.00 | 0.00 | 0.00 | 57 | 1010.0 |
| 20260503070814 | 7 | 348 | 3.2 | 8.0 | 0.00 | 0.00 | 0.00 | 56 | 1010.0 |
| 20260503070310 | 7 | 319 | 1.6 | 4.8 | 0.00 | 0.00 | 0.00 | 57 | 1010.0 |
| 20260503060314 | 8 | 340 | 3.2 | 8.0 | 0.00 | 0.00 | 0.00 | 52 | 1010.4 |
| 20260503054822 | 8 | 320 | 3.2 | 12.9 | 0.00 | 0.00 | 0.00 | 52 | 1010.5 |
| 20260503054316 | 8 | 314 | 0.0 | 6.4 | 0.00 | 0.00 | 0.00 | 54 | 1010.5 |
| 20260503053813 | 8 | 46 | 1.6 | 8.0 | 0.00 | 0.00 | 0.00 | 54 | 1010.4 |
| 20260503053313 | 8 | 345 | 3.2 | 12.9 | 0.00 | 0.00 | 0.00 | 52 | 1010.4 |
| 20260503052828 | 8 | 319 | 6.4 | 14.5 | 0.00 | 0.00 | 0.00 | 51 | 1010.5 |
| 20260503052324 | 8 | 33 | 8.0 | 14.5 | 0.00 | 0.00 | 0.00 | 51 | 1010.5 |
| 20260503051821 | 8 | 328 | 4.8 | 12.9 | 0.00 | 0.00 | 0.00 | 52 | 1010.6 |
| 20260503051317 | 8 | 5 | 4.8 | 16.1 | 0.00 | 0.00 | 0.00 | 51 | 1010.6 |
| 20260503050813 | 8 | 333 | 9.7 | 16.1 | 0.00 | 0.00 | 0.00 | 50 | 1010.5 |
| 20260503050310 | 8 | 332 | 6.4 | 12.9 | 0.00 | 0.00 | 0.00 | 50 | 1010.6 |
| 20260503045826 | 8 | 341 | 6.4 | 12.9 | 0.00 | 0.00 | 0.00 | 50 | 1010.5 |
| 20260503045326 | 8 | 327 | 6.4 | 14.5 | 0.00 | 0.00 | 0.00 | 49 | 1010.5 |
| 20260503044823 | 8 | 298 | 8.0 | 14.5 | 0.00 | 0.00 | 0.00 | 49 | 1010.6 |
| 20260503044318 | 8 | 330 | 6.4 | 12.9 | 0.00 | 0.00 | 0.00 | 48 | 1010.7 |
| 20260503043814 | 8 | 347 | 4.8 | 12.9 | 0.00 | 0.00 | 0.00 | 50 | 1010.8 |
| 20260503043311 | 9 | 277 | 3.2 | 14.5 | 0.00 | 0.00 | 0.00 | 48 | 1010.8 |
| 20260503042826 | 9 | 287 | 3.2 | 14.5 | 0.00 | 0.00 | 0.00 | 50 | 1010.9 |
| 20260503042323 | 9 | 319 | 6.4 | 11.3 | 0.00 | 0.00 | 0.00 | 48 | 1010.9 |
| 20260503041823 | 9 | 15 | 4.8 | 9.7 | 0.00 | 0.00 | 0.00 | 48 | 1010.9 |
| 20260503041319 | 9 | 342 | 3.2 | 12.9 | 0.00 | 0.00 | 0.00 | 49 | 1011.0 |
| 20260503040815 | 9 | 355 | 6.4 | 17.7 | 0.00 | 0.00 | 0.00 | 47 | 1010.9 |
| 20260503040311 | 9 | 327 | 6.4 | 17.7 | 0.00 | 0.00 | 0.00 | 49 | 1010.8 |
| 20260503035827 | 9 | 344 | 3.2 | 9.7 | 0.00 | 0.00 | 0.00 | 47 | 1010.9 |
| 20260503035324 | 9 | 22 | 4.8 | 12.9 | 0.00 | 0.00 | 0.00 | 49 | 1010.9 |
| 20260503034820 | 9 | 266 | 4.8 | 14.5 | 0.00 | 0.00 | 0.00 | 47 | 1011.0 |
| 20260503034320 | 9 | 321 | 6.4 | 14.5 | 0.00 | 0.00 | 0.00 | 48 | 1011.0 |
| 20260503033817 | 9 | 68 | 4.8 | 16.1 | 0.00 | 0.00 | 0.00 | 47 | 1010.9 |
| 20260503033313 | 10 | 314 | 6.4 | 16.1 | 0.00 | 0.00 | 0.00 | 48 | 1010.9 |